Weather History for Monroe, LA

Change the Weather History Date:

Thursday, September 19, 2013

  Actual Average Record
Temperature  
Mean Temperature 83 °F 76 °F  
Max Temperature 96 °F 88 °F 102 °F (2010)
Min Temperature 70 °F 63 °F 48 °F (1981)
Degree Days  
Heating Degree Days 0 0  
Month to date heating degree days 0 0  
Since 1 July heating degree days 0 0  
Cooling Degree Days 18 11  
Month to date cooling degree days 343 260  
Year to date cooling degree days 2188 2267  
Growing Degree Days 34 (Base 50)    
Moisture  
Dew Point 69 °F    
Average Humidity 66    
Maximum Humidity 93    
Minimum Humidity 38    
Precipitation  
Precipitation 0.00 in 0.10 in 2.56 in (1992)
Month to date precipitation 0.32 2.28  
Year to date precipitation 32.60 37.76  
Snow  
Snow 0.00 in - - ()
Month to date snowfall 0.0  
Since 1 July snowfall 0.0  
Since 1 September snowfall 0.0  
Snow Depth 0.00 in    
Sea Level Pressure  
Sea Level Pressure 29.99 in    
Wind  
Wind Speed 5 mph (SSE)    
Max Wind Speed 20 mph    
Max Gust Speed 30 mph    
Visibility 10 miles    
Events      
T = Trace of Precipitation, MM = Missing Value Source: NWS Daily Summary

Daily Weather History Graph

Daily Weather History Graph

Search for Another Location

Airport:

Trip Planner

Search our weather history database for the weather conditions in past years. The results will help you decide how hot, cold, wet, or windy it might be!

Date:

Astronomy

Sep. 19, 2013 Rise Set
Actual Time 6:54 AM CDT 7:08 PM CDT
Civil Twilight 6:30 AM CDT 7:33 PM CDT
Nautical Twilight 6:01 AM CDT 8:01 PM CDT
Astronomical Twilight 5:32 AM CDT 8:30 PM CDT
Moon 7:11 PM CDT (9/19) 7:01 AM CDT (9/19)
Length of Visible Light 13h 03m
Length of Day
12h 13m
Full, 100% of the Moon is Illuminated
Sep 19
Full
Sep 26
Last Quarter
Oct 4
New
Oct 11
First Quarter
Oct 18
Full

Hourly Weather History & Observations

Time (CDT) Temp. Heat Index Dew Point Humidity Pressure Visibility Wind Dir Wind Speed Gust Speed Precip Events Conditions
12:53 AM 79.0 °F - 69.1 °F 72% 30.02 in 10.0 mi SSE 5.8 mph - N/A   Clear
1:53 AM 78.1 °F - 69.1 °F 74% 30.02 in 10.0 mi SSE 3.5 mph - N/A   Clear
2:53 AM 75.9 °F - 70.0 °F 82% 30.01 in 10.0 mi Calm Calm - N/A   Clear
3:53 AM 75.0 °F - 69.1 °F 82% 30.01 in 10.0 mi Calm Calm - N/A   Clear
4:53 AM 72.0 °F - 69.1 °F 91% 30.01 in 10.0 mi Calm Calm - N/A   Clear
5:53 AM 73.0 °F - 69.1 °F 87% 30.02 in 10.0 mi Calm Calm - N/A   Clear
6:53 AM 71.1 °F - 68.0 °F 90% 30.04 in 8.0 mi Calm Calm - N/A   Clear
7:53 AM 73.9 °F - 70.0 °F 87% 30.04 in 7.0 mi Variable 3.5 mph - N/A   Clear
8:53 AM 78.1 °F - 71.1 °F 79% 30.04 in 10.0 mi Variable 4.6 mph - N/A   Clear
9:53 AM 82.9 °F 87.5 °F 71.1 °F 67% 30.05 in 6.0 mi Variable 4.6 mph - N/A   Haze
10:53 AM 87.1 °F 92.8 °F 71.1 °F 59% 30.06 in 10.0 mi South 8.1 mph - N/A   Scattered Clouds
11:53 AM 90.0 °F 95.4 °F 70.0 °F 52% 30.04 in 10.0 mi SSE 5.8 mph - N/A   Scattered Clouds
12:53 PM 93.0 °F 97.9 °F 69.1 °F 45% 30.02 in 10.0 mi South 9.2 mph - N/A   Clear
1:53 PM 93.0 °F 96.4 °F 66.9 °F 42% 29.98 in 10.0 mi East 8.1 mph - N/A   Mostly Cloudy
2:53 PM 93.0 °F 96.4 °F 66.9 °F 42% 29.96 in 10.0 mi South 5.8 mph - N/A   Mostly Cloudy
3:53 PM 96.1 °F 99.9 °F 66.9 °F 38% 29.93 in 10.0 mi SSE 8.1 mph - N/A   Scattered Clouds
4:53 PM 93.9 °F 96.1 °F 64.9 °F 38% 29.91 in 10.0 mi Variable 5.8 mph - N/A   Partly Cloudy
5:53 PM 93.0 °F 95.9 °F 66.0 °F 41% 29.91 in 10.0 mi SE 6.9 mph - N/A   Clear
6:53 PM 90.0 °F 92.8 °F 66.9 °F 46% 29.93 in 10.0 mi South 11.5 mph - N/A   Partly Cloudy
7:53 PM 86.0 °F 88.2 °F 66.0 °F 51% 29.93 in 10.0 mi SSE 5.8 mph - N/A   Mostly Cloudy
8:53 PM 81.0 °F 84.4 °F 70.0 °F 69% 29.97 in 10.0 mi SSE 13.8 mph 24.2 mph N/A   Scattered Clouds
9:53 PM 79.0 °F - 71.1 °F 77% 29.98 in 10.0 mi South 8.1 mph - N/A   Clear
10:53 PM 77.0 °F - 71.1 °F 82% 29.99 in 10.0 mi Variable 4.6 mph - N/A   Clear
11:53 PM 77.0 °F - 71.1 °F 82% 29.98 in 10.0 mi SSE 3.5 mph - N/A   Clear